Location: Ithaca
(42.4410°N, 76.4970°W)
Time: 03:27:21
(UTC-05:00)

ISS - Visible Passes

Search period start: 23 January 2017 00:00
Search period end: 02 February 2017 00:00
Orbit: 399 x 410 km, 51.6° (Epoch: 23 January)

Date Brightness Start Highest point End Pass type
(mag) Time Alt. Az. Time Alt. Az. Time Alt. Az.
27 Jan -1.8 18:51:22 10° SSW 18:53:29 25° SSE 18:53:29 25° SSE visible
28 Jan -1.2 18:00:10 10° SSE 18:02:05 15° SE 18:03:45 11° E visible
28 Jan -1.0 19:34:57 10° WSW 19:36:25 24° WSW 19:36:25 24° WSW visible
29 Jan -3.3 18:42:40 10° SW 18:45:55 65° SE 18:46:35 48° E visible
30 Jan -2.3 17:50:41 10° SSW 17:53:41 33° SE 17:56:39 10° ENE visible
30 Jan -1.5 19:27:06 10° W 19:29:19 30° WNW 19:29:19 30° WNW visible
31 Jan -2.9 18:34:30 10° WSW 18:37:43 56° NNW 18:39:18 26° NE visible
01 Feb -1.3 19:19:27 10° WNW 19:21:52 22° NNW 19:21:52 22° NNW visible
